Regional Weather Roundup
Issued by NWS

Home | Current Version | Previous Version | Text Only | Print | Product List | Glossary Off
Versions: 1 2 3 4 5 6 7 8 9 10 11 12 13 14 15 16 17 18 19 20 21 22 23 24 25 26 27 28 29 30 31 32 33 34 35 36 37 38 39 40 41 42 43 44 45 46 47 48 49 50

000
ASUS43 KBIS 092010
RWRND

NORTH DAKOTA REGIONAL WEATHER ROUNDUP
NATIONAL WEATHER SERVICE BISMARCK ND
300 PM CDT WED JUL 09 2014

NOTE: "FAIR" INDICATES FEW OR NO CLOUDS BELOW 12,000 FEET WITH NO
SIGNIFICANT WEATHER AND/OR OBSTRUCTIONS TO VISIBILITY.


NDZ001>003-009>011-017-092100-
NORTHWEST NORTH DAKOTA

CITY           SKY/WX    TMP DP  RH WIND       PRES   REMARKS
WILLISTON      SUNNY     82  49  31 SE6       29.96F
MINOT          MOSUNNY   75  56  51 SE8       29.99F
MINOT AFB      SUNNY     75  58  56 SE6       29.98F
$$

NDZ018>021-031>035-040>046-092100-
SOUTHWEST NORTH DAKOTA

CITY           SKY/WX    TMP DP  RH WIND       PRES   REMARKS
BISMARCK       MOSUNNY   77  57  50 VRB3      30.01F HAZE
DICKINSON      MOSUNNY   79  53  40 S7        29.99F
GARRISON         N/A     75  56  51 S7        30.00F
HETTINGER ARPT MOSUNNY   80  52  37 SE9       30.02F
$$

NDZ004>008-012>016-024-026-027-054-092100-
NORTHEAST NORTH DAKOTA

CITY           SKY/WX    TMP DP  RH WIND       PRES   REMARKS
GRAND FORKS    MOSUNNY   72  50  45 N8        30.01F
GRND FRKS AFB  SUNNY     72  50  46 VRB6      30.03F
DEVILS LAKE    CLOUDY    70  50  49 E5        30.02F
$$

NDZ022-023-025-028>030-036>039-047>053-092100-
SOUTHEAST NORTH DAKOTA

CITY           SKY/WX    TMP DP  RH WIND       PRES   REMARKS
FARGO          SUNNY     75  50  41 N8        30.01F
JAMESTOWN      MOSUNNY   73  52  47 VRB3      30.02F
$$




USA.gov is the U.S. government's official web portal to all federal, state and local government web resources and services.